Regional Weather Roundup
Issued by NWS Mobile, AL

Home | Current Version | Previous Version | Text Only | Print | Product List | Glossary On
Versions: 1 2 3 4 5 6 7 8 9 10 11 12 13 14 15 16 17 18 19 20 21 22 23 24 25 26 27 28
000
ASUS44 KMOB 272113
RWRMOB
REGIONAL WEATHER ROUNDUP
NATIONAL WEATHER SERVICE MOBILE AL
400 PM CDT TUE JUN 27 2017

NOTE: "FAIR" INDICATES FEW OR NO CLOUDS BELOW 12,000 FEET WITH NO
      SIGNIFICANT WEATHER AND/OR OBSTRUCTIONS TO VISIBILITY.

  * THESE STATIONS ARE PART OF THE UNIVERSITY OF SOUTH ALABAMA
    MESONET AND ARE NOT UNDER NWS OR FAA QUALITY CONTROL.

ALZ061>064-272200-
COASTAL ALABAMA

CITY           SKY/WX    TMP DP  RH WIND       PRES   REMARKS
MOBILE REG APT PTSUNNY   87  67  51 NE10      30.01F
BROOKLEY FIELD CLOUDY    86  72  62 NE8       30.01F
USA CAMPUS*      N/A     86  66  51 NE6       30.00F
DOG RIVER*       N/A    N/A N/A N/A MISG        N/A


CITY           SKY/WX    TMP DP  RH WIND       PRES   REMARKS
GULF SHORES    PTSUNNY   82  73  74 CALM      29.99F

$$

ALZ051>060-272200-
INTERIOR SOUTHWEST AND SOUTH CENTRAL ALABAMA

CITY           SKY/WX    TMP DP  RH WIND       PRES   REMARKS
GREENVILLE     CLOUDY    86  61  42 NE6       30.02F
EVERGREEN      CLOUDY    83  68  60 E5        30.03S
ATMORE*        NOT AVBL
ANDALUSIA/OPP  CLOUDY    86  67  52 N7        30.02F
ANDALUSIA*       N/A     82  68  61 NE7       30.03F
FLORALA APT    CLOUDY    81  69  67 N7        30.04F
FLORALA*         N/A     81  68  65 VRB3      30.71F

$$

FLZ001>006-272200-
WESTERN FLORIDA PANHANDLE

CITY           SKY/WX    TMP DP  RH WIND       PRES   REMARKS
PENSACOLA      CLOUDY    86  69  56 N9        29.99F
NAS PENSACOLA  CLOUDY    83  72  69 VRB3      29.98F
MILTON         CLOUDY    83  70  64 NE5       30.01F
WHTNG S FIELD  CLOUDY    85  69  58 NE14      30.01S


CITY           SKY/WX    TMP DP  RH WIND       PRES   REMARKS
JAY*             N/A     82  66  57 NE3       30.01F
CRESTVIEW      CLOUDY    82  68  62 NE5       30.02F
VALPARAISO     NOT AVBL
DESTIN         LGT RAIN  85  79  82 NE7       30.00S HX  98

$$

MSZ076-079-272200-
INTERIOR SOUTHEAST MISSISSIPPI

CITY           SKY/WX    TMP DP  RH WIND       PRES   REMARKS
LEAKESVILLE*   NOT AVBL
AGRICOLA*        N/A     84  68  58 NE6       30.00F

$$

MARINE OBSERVATIONS

STATION/POSITION TIME  TEMP    WIND        PRES    WAVE
                       AIR SEA DIR/SP/G            HT/PER
                 (UTC) (F)     (DEG/KT/KT) (MB)    (FT/S)
PASCAGOULA       2048   85      10/  7/ 10 1015.8F
PETIT BOIS ISLND 2048   83     190/  2/  3 1017.0S
GRAND BAY        1930   82     180/  4     1017.0S
KATRINA CUT      2030   82     100/  2     1016.3R
CEDAR POINT      2030   83      60/  4     1016.3S
E DAUPHIN ISLAND 2000   81      30/  3/  3 1015.8F
MIDDLE BAY LIGHT 2030   83     360/ 15     1015.6F
USCG MOBILE BAY  2048   83 80   80/  9/ 12 1016.6F
STATE DOCKS      2048   87 79              1016.0F
MEAHER PARK      2030   84      20/  5     1015.6F
FORT MORGAN      2042   83      10/  6/  7   N/A
12 S ORANGE BCH  2050   80 82   50/  2/  2 1015.3F   1/ 5
PENSACOLA BAY    2042   85 82              1015.9F
64 S DAUPHIN ISL 2050   82 84  360/  6/  6 1015.6F   1/ 7
67 S FORT MORGAN 2030   83     360/  2     1015.6F

$$

SELECTED LOCATIONS ACROSS THE REGION

CITY           SKY/WX    TMP DP  RH WIND       PRES   REMARKS
NEW ORLEANS    CLOUDY    83  62  49 NE10      30.00F
GULFPORT       CLOUDY    87  65  47 NE6       29.99F
PASCAGOULA AP  CLOUDY    86  66  51 E7        30.00F
PASCAGOULA*    NOT AVBL
HATTIESBURG    CLOUDY    85  65  51 NE8       30.02S
LAUREL         MOSUNNY   84  63  48 E9        30.05F
MERIDIAN       PTSUNNY   88  63  43 E8        30.03F
JACKSON        MOSUNNY   89  62  40 E7        30.02F
MONTGOMERY     MOSUNNY   90  61  37 N8        30.02F
TROY           CLOUDY    85  66  53 N8        30.04F
ASHFORD*         N/A     82  68  61 NE7       30.03F
DOTHAN         CLOUDY    82  68  62 N9        30.05F
PANAMA CITY    MOSUNNY   83  70  64 NW12      29.98F

$$





USA.gov is the U.S. government's official web portal to all federal, state and local government web resources and services.